Location: La Granja
(40.9018°N, 4.0069°W)
Time: 03:07:47
(UTC+00:00)

Daily predictions for brighter satellites

Satellite Brightness Start Highest point End
(mag) Time Altitude Azimuth Time Altitude Azimuth Time Altitude Azimuth
Cosmos 1833 Rocket 4.1 03:33:50 34° ESE 03:33:50 34° ESE 03:38:48 10° NE
NOSS 3-2 (C) 4.4 03:43:22 39° NNE 03:43:22 39° NNE 03:47:21 10° NNE
CENTAUR R/B 3.1 03:50:12 47° NNE 03:50:12 47° NNE 03:55:16 10° NNE
Cosmos 1656 4.2 03:55:15 57° ESE 03:55:15 57° ESE 04:00:06 10° SE
Cosmos 2082 Rocket 3.9 03:52:15 11° SSE 03:56:44 29° ESE 04:01:29 10° NE
ISS -0.6 04:09:06 13° NE 04:09:06 13° NE 04:09:34 10° NE
CZ-2C R/B 2.9 04:04:49 10° NNE 04:08:51 54° NE 04:08:51 54° NE
Lacrosse 4 Rocket 3.8 04:18:22 14° NNE 04:18:22 14° NNE 04:19:03 10° NNE
Cosmos 1697 Rocket 3.3 04:16:50 19° N 04:20:48 55° ENE 04:26:20 10° SE
COSMOS 2406 3.1 04:21:37 71° NNW 04:21:37 71° NNW 04:26:53 10° NNE
DELTA 2 R/B (1) 4.3 04:24:26 39° S 04:24:26 39° S 04:28:51 10° SE
Lacrosse 5 rocket 3.0 04:25:46 23° NNE 04:25:46 23° NNE 04:27:22 10° NE
Meteor 2-5 Rocket 4.4 04:19:56 10° S 04:25:25 54° E 04:31:04 10° NNE
PAYLOAD A 4.1 04:31:15 10° N 04:35:51 58° NW 04:35:51 58° NW
ATLAS 3B R/B 2.6 04:32:59 30° SSW 04:36:31 82° ESE 04:43:10 10° NE
ERS-2 2.7 04:34:46 10° SSE 04:38:19 54° ENE 04:39:17 40° NNE
Abrixas rocket 4.2 04:43:59 22° NE 04:43:59 22° NE 04:45:35 10° ENE
Cosmos 1302 Rocket 4.0 04:43:08 58° W 04:43:12 58° WSW 04:48:21 10° S
Cosmos 1980 Rocket 3.2 04:38:10 10° NNW 04:43:32 45° ENE 04:48:51 10° SE
Cosmos 1092 Rocket 4.4 04:38:41 10° S 04:44:43 62° E 04:50:51 10° NNE
Geosat 4.3 04:41:08 10° SE 04:46:05 66° ENE 04:51:06 10° NNW
Cosmos 2228 3.5 04:41:51 10° N 04:46:11 62° E 04:50:31 10° SSE
ADEOS Rocket 2.7 04:40:51 10° S 04:46:15 59° W 04:51:45 10° NNW
Nadezhda 4 Rocket 3.8 04:42:48 10° SSW 04:48:54 75° W 04:55:04 10° N
Cosmos 2344 4.3 04:47:42 29° NW 04:49:09 31° NW 04:56:16 10° NNE
CZ-3 R/B 3.9 04:35:59 23° WSW 04:52:14 48° S 05:00:21 10° ESE
ADEOS 3.6 04:47:40 10° NNE 04:52:55 79° ESE 04:58:08 10° S
Cosmos 44 Rocket 3.7 04:53:07 45° WSW 04:53:07 45° WSW 04:58:02 10° S
Cosmos 1606 Rocket 3.7 04:52:25 10° N 04:56:55 78° E 05:01:23 10° S
Cosmos 1400 Rocket 3.8 04:53:39 10° N 04:57:27 45° ENE 05:01:11 10° SSE
SJ-6F 4.3 04:54:24 10° N 04:58:29 70° WNW 05:01:08 21° SSW
CZ-4B R/B 4.4 04:54:22 10° NNE 04:58:30 61° E 05:02:24 10° S
TELKOM 3 4.5 05:01:47 40° N 05:01:47 40° N 05:04:58 10° NE
Cosmos 2360 4.1 04:55:49 10° NNW 05:01:32 89° WSW 05:07:13 10° SSE
COSMO-SKYMED 1 3.8 05:00:33 10° SE 05:04:37 42° ENE 05:08:44 10° N
H-2A R/B 4.3 05:01:39 10° SSW 05:02:03 12° SSW 05:02:03 12° SSW
CZ-4B R/B 1.3 05:03:48 10° S 05:07:15 82° WSW 05:10:16 13° NNW
Cosmos 1300 2.6 05:07:15 10° N 05:11:04 88° W 05:14:53 10° S
ARGOS Delta rocket 4.4 05:06:32 10° NNE 05:11:59 75° E 05:17:28 10° S
Cosmos 220 Rocket 3.9 05:09:17 14° NNW 05:13:00 66° WSW 05:17:21 10° S
Cosmos 1626 2.8 05:14:34 34° NW 05:14:34 34° NW 05:17:22 10° N
Cosmos 1689 Rocket 3.5 05:11:17 10° SE 05:14:01 37° ENE 05:16:46 10° N
SL-14 R/B 3.4 05:10:18 11° SSW 05:14:03 50° W 05:17:59 10° N
Cosmos 2278 3.7 05:08:25 10° NNW 05:14:06 82° ENE 05:19:45 10° SSE
ALOS 2.2 05:09:55 10° N 05:14:33 66° WNW 05:19:10 10° SSW
Cosmos 1833 Rocket 3.3 05:15:37 27° W 05:17:38 35° WNW 05:22:47 10° N
Cosmos 1992 Rocket 3.9 05:16:24 10° NNW 05:21:34 66° WSW 05:26:44 10° S
Cosmos 2084 3.4 05:18:51 17° SW 05:22:09 74° NW 05:26:33 10° NNE
deb Chang Zheng 4 3.5 05:20:23 10° N 05:24:34 56° WNW 05:28:44 10° SSW
Intercosmos 24 4.0 05:21:56 10° NNW 05:25:25 40° W 05:28:47 10° SSW
BREEZE-M DEB (TANK) 2.6 05:25:58 26° SW 05:26:04 26° SW 05:27:59 10° SSE
METEOR-M 4.1 05:22:19 10° N 05:27:37 66° WNW 05:32:53 10° SSW
Elektron 1 4.3 05:27:38 30° W 05:28:32 38° NW 05:31:14 10° NNE
Okean 1-7 Rocket 3.6 05:24:14 10° S 05:28:46 90° SE 05:33:19 10° N
SJ-12 3.8 05:26:11 10° NNE 05:30:19 86° W 05:34:24 10° SSW
Cosmos 2058 Rocket 3.1 05:26:56 10° N 05:31:27 89° ENE 05:35:54 10° S
SL-19 R/B 3.5 05:28:55 10° N 05:31:41 53° WNW 05:34:33 10° SSW
Cosmos 1428 Rocket 4.4 05:27:18 10° SSW 05:33:32 77° W 05:39:45 10° N
Cosmos 1484 Rocket 3.4 05:30:19 10° N 05:33:48 33° WNW 05:37:13 10° SW
Cosmos 1461 4.2 05:34:16 21° W 05:36:09 27° NW 05:40:10 10° NNE
H-2A R/B 4.3 05:32:43 10° NNE 05:36:19 39° E 05:39:57 10° SSE
Meteor 1-24 Rocket 3.9 05:31:33 10° SSW 05:36:58 48° WNW 05:42:35 10° N
Cosmos 1892 Rocket 3.7 05:33:10 10° SSW 05:37:22 49° W 05:41:38 10° N
Cosmos 2369 4.1 05:32:36 10° NW 05:37:51 40° WSW 05:43:05 10° S
Cosmos 1553 Rocket 4.3 05:32:47 10° N 05:38:54 68° E 05:44:55 10° SSE
USA 290 3.4 05:39:33 22° WNW 05:40:01 23° WNW 05:42:41 10° N
CENTAUR R/B 4.1 05:37:24 14° WNW 05:40:33 20° NNW 05:45:36 10° NNE
Cosmos 2082 Rocket 2.6 05:35:24 10° SW 05:40:37 39° WNW 05:45:53 10° N
Cosmos 614 Rocket 3.9 05:37:24 10° SSW 05:42:33 76° WNW 05:47:41 10° NNE
Meteor PRIRODA 3.5 05:39:13 10° N 05:42:53 81° WNW 05:46:33 10° SSW
ISS -1.9 05:42:03 15° NW 05:43:25 19° NNW 05:45:54 10° NNE
Cosmos 2026 Rocket 4.1 05:39:42 10° SSW 05:45:58 59° W 05:52:17 10° N
CZ-2C R/B 4.0 05:44:41 10° NNW 05:47:21 15° WNW 05:48:13 14° WNW
Cosmos 2251 Rocket 4.2 05:45:26 10° SW 05:50:17 34° WNW 05:55:09 10° N
SL-16 R/B 3.3 05:46:15 10° NNW 05:51:44 47° ENE 05:57:10 10° SE
SKYMED 2 3.6 05:48:23 10° S 05:52:38 56° W 05:56:55 10° NNW
PSLV R/B 4.0 05:50:24 10° S 05:54:32 61° WSW 05:58:44 10° NNW
Meteor 1-31 Rocket 3.8 05:55:15 10° NNW 05:58:30 25° WNW 06:01:44 10° SW
Cosmos 1455 2.7 05:55:26 10° N 05:59:18 64° E 06:03:07 10° SSE
Cosmos 1626 Rocket 3.6 05:56:52 10° S 06:01:19 83° W 06:05:49 10° N
Cosmos 1023 Rocket 4.5 05:58:22 10° SSW 06:03:27 89° ESE 06:08:34 10° NNE
Lacrosse 5 rocket 3.2 06:01:45 10° NW 06:03:31 13° NNW 06:05:19 10° N
YAOGAN 6 3.9 06:00:04 10° NNE 06:03:38 46° E 06:07:07 10° S
Meteor 2-1 Rocket 4.4 05:57:55 10° N 06:03:39 88° E 06:09:27 10° S
CZ-4B R/B 3.4 06:00:14 10° N 06:04:04 40° WNW 06:08:03 10° SW
Cosmos 1697 Rocket 3.9 06:00:13 10° NW 06:04:17 20° W 06:08:18 10° SW
Cosmos 1602 Rocket 3.8 05:59:57 10° S 06:04:21 78° E 06:08:50 10° N
Spot 2 4.3 05:59:47 10° NNE 06:04:24 90° W 06:09:16 10° SSW
Cosmos 1703 4.0 06:02:37 10° S 06:06:24 58° E 06:10:14 10° NNE
Okean O Rocket 3.5 06:05:30 10° NNE 06:09:32 36° E 06:13:34 10° SSE
Cosmos 1190 Rocket 4.0 06:04:47 10° SSW 06:10:01 84° WNW 06:15:17 10° NNE
Gblst 52 Del rocket 4.3 06:08:00 10° WSW 06:13:41 83° NW 06:20:05 10° NE
Cosmos 1812 Rocket 3.9 06:10:26 10° N 06:14:47 73° E 06:19:05 10° SSE
PSLV R/B 3.9 06:11:21 10° N 06:15:27 70° WNW 06:19:31 10° SSW
Cosmos 2360 Rocket 3.9 06:10:56 10° N 06:15:59 33° ENE 06:21:00 10° ESE
